DW3838 Weather Reports


time (UTC)temp
F
wind
direction
speed
knots
gust
knots
rain 1hr
in
rain 24hr
in
rain mn
in
humidity
%
barometer
mb
20260506124539 50 200 0.0 0.0 0.00 0.00 0.00 89 1020.1
20260506123039 50 200 0.0 0.0 0.00 0.00 0.00 89 1020.1
20260506121540 50 200 0.0 0.0 0.00 0.00 0.00 89 1020.0
20260506120041 50 200 0.0 0.0 0.00 0.00 0.00 89 1020.0
20260506114541 50 200 0.0 0.0 0.00 0.00 0.00 89 1019.9
20260506113034 50 200 0.0 0.0 0.00 0.00 0.00 89 1019.8
20260506111535 50 200 0.0 0.0 0.00 0.00 0.00 89 1019.7
20260506110036 50 200 0.0 0.0 0.00 0.00 0.00 89 1019.6
20260506104605 50 200 0.0 0.0 0.00 0.00 0.00 89 1019.6
20260506103049 50 200 0.0 0.0 0.00 0.00 0.00 89 1019.5
20260506101559 50 200 0.0 0.0 0.00 0.00 0.00 89 1019.3
20260506094519 50 200 0.0 0.0 0.00 0.02 0.00 88 1019.1
20260506093015 50 200 0.0 0.0 0.00 0.02 0.00 88 1019.1
20260506091514 50 200 0.0 0.0 0.00 0.02 0.00 88 1019.3
20260506090008 50 200 0.0 0.0 0.00 0.02 0.00 88 1019.1
20260506084505 50 200 0.0 0.0 0.00 0.06 0.00 88 1019.3
20260506083100 49 200 0.0 0.0 0.00 0.06 0.00 88 1019.4
20260506081558 49 200 0.0 0.0 0.00 0.06 0.00 88 1019.2
20260506073058 49 226 0.0 0.0 0.00 0.06 0.00 88 1018.8
20260506071607 49 226 0.0 0.0 0.00 0.06 0.00 87 1018.8
20260506061546 50 226 0.0 0.0 0.00 0.13 0.06 87 1018.3
20260506044538 50 182 0.0 3.5 0.00 0.13 0.06 87 1017.7
20260506043035 51 199 0.9 2.6 0.00 0.13 0.06 87 1017.5
20260506041544 52 209 0.0 3.5 0.00 0.13 0.06 87 1017.3
20260506040031 53 247 0.0 3.5 0.00 0.13 0.06 86 1017.1
20260506034529 54 163 0.0 0.9 0.00 0.13 0.06 86 1017.1
20260506033030 55 201 0.0 2.6 0.00 0.13 0.06 84 1016.7
20260506031526 57 214 0.0 0.9 0.00 0.13 0.06 82 1016.4
20260506030025 58 148 0.0 1.7 0.00 0.13 0.06 79 1016.1
20260506024521 58 161 0.0 0.0 0.00 0.17 0.06 79 1016.1
20260506023022 58 319 0.0 7.0 0.00 0.17 0.06 77 1015.8
20260506021521 58 258 0.0 3.5 0.00 0.17 0.06 77 1015.9
20260506020023 58 248 0.0 3.5 0.00 0.17 0.06 78 1015.7
20260506014520 58 28 0.0 4.3 0.00 0.21 0.06 77 1015.6
20260506013026 59 173 0.9 5.2 0.00 0.21 0.06 76 1015.7
20260506011518 60 71 0.0 2.6 0.00 0.21 0.06 78 1015.5
20260506010024 60 331 0.0 4.3 0.00 0.21 0.06 77 1015.5
20260506004528 60 240 0.0 6.1 0.00 0.24 0.06 77 1015.6
20260506003018 61 185 0.0 2.6 0.00 0.24 0.06 76 1015.5
20260506001517 61 5 0.9 5.2 0.00 0.24 0.06 76 1015.4
20260506000020 61 202 0.9 5.2 0.00 0.24 0.06 75 1015.3
20260505234519 61 165 0.9 6.1 0.00 0.27 0.06 75 1015.3
20260505233016 62 202 0.0 7.8 0.00 0.27 0.06 74 1015.3
20260505231517 63 170 2.6 7.8 0.00 0.27 0.06 72 1015.4
20260505230016 63 355 0.9 7.0 0.00 0.27 0.06 74 1015.3
20260505224517 64 155 0.0 5.2 0.00 0.31 0.06 72 1015.3
20260505223013 64 289 0.9 5.2 0.00 0.31 0.06 73 1015.3
20260505221513 65 180 0.0 3.5 0.00 0.31 0.06 71 1015.4
20260505220024 65 262 0.0 7.8 0.00 0.31 0.06 72 1015.6
20260505214513 63 319 1.7 4.3 0.00 0.31 0.06 75 1015.6
20260505213005 63 234 0.0 3.5 0.00 0.31 0.06 77 1015.8
20260505211504 62 202 0.9 4.3 0.00 0.31 0.06 76 1015.9
20260505210006 62 178 0.0 4.3 0.00 0.31 0.06 77 1015.9
20260505204503 61 186 0.0 4.3 0.00 0.31 0.06 78 1016.0
20260505203002 61 178 0.0 3.5 0.00 0.31 0.06 76 1016.1
20260505201607 62 161 0.0 3.5 0.00 0.31 0.06 77 1016.1
20260505200100 62 333 0.0 5.2 0.00 0.31 0.06 76 1016.1
20260505194603 62 340 0.0 3.5 0.00 0.31 0.06 76 1016.1
20260505193055 61 31 0.0 3.5 0.00 0.31 0.06 78 1016.2
20260505191557 60 222 0.0 3.5 0.00 0.31 0.06 78 1016.2
20260505190110 60 167 0.0 3.5 0.00 0.31 0.06 78 1016.2
20260505184604 60 348 0.0 0.0 0.00 0.31 0.06 79 1016.2
20260505183053 60 181 0.0 4.3 0.00 0.31 0.06 79 1016.2
20260505181544 59 198 0.0 2.6 0.00 0.31 0.06 79 1016.1
20260505180042 58 197 0.0 3.5 0.00 0.31 0.06 80 1016.1
20260505174543 58 194 0.0 1.7 0.00 0.31 0.06 81 1015.9
20260505173042 58 171 0.0 2.6 0.00 0.31 0.06 83 1015.8
20260505171541 57 5 0.0 2.6 0.00 0.31 0.06 84 1015.7
20260505170036 57 128 0.0 3.5 0.00 0.31 0.06 85 1015.8
20260505164537 56 323 0.9 4.3 0.00 0.31 0.06 84 1015.8
20260505163031 53 339 2.6 7.0 0.00 0.31 0.06 85 1015.6
20260505161527 52 309 0.0 7.8 0.00 0.31 0.06 88 1015.5
20260505153028 54 272 0.0 0.0 0.00 0.31 0.06 94 1015.4
20260505151521 54 178 0.9 3.5 0.00 0.31 0.06 94 1015.3